Regional Weather Roundup
Issued by NWS

Home | Current Version | Previous Version | Text Only | Print | Product List | Glossary Off
Versions: 1 2 3 4 5 6 7 8 9 10 11 12 13 14 15 16 17 18 19 20 21 22 23 24 25 26 27 28 29 30 31 32 33 34 35 36 37 38 39 40 41 42 43 44 45 46 47 48 49 50

000
ASUS43 KBIS 280510
RWRND

NORTH DAKOTA REGIONAL WEATHER ROUNDUP
NATIONAL WEATHER SERVICE BISMARCK ND
1200 AM CDT THU APR 28 2016

NOTE: "FAIR" INDICATES FEW OR NO CLOUDS BELOW 12,000 FEET WITH NO
SIGNIFICANT WEATHER AND/OR OBSTRUCTIONS TO VISIBILITY.


NDZ001>003-009>011-017-280600-
NORTHWEST NORTH DAKOTA

CITY           SKY/WX    TMP DP  RH WIND       PRES   REMARKS
WILLISTON      CLOUDY    43  30  60 NE3       30.07S
MINOT          MOCLDY    46  24  42 N12       30.06R
MINOT AFB      MOCLDY    42  24  48 NE10      30.07R
$$

NDZ018>021-031>035-040>046-280600-
SOUTHWEST NORTH DAKOTA

CITY           SKY/WX    TMP DP  RH WIND       PRES   REMARKS
BISMARCK       CLOUDY    42  34  73 S8        30.00R
DICKINSON      CLOUDY    38  28  67 N9        29.97F
GARRISON         N/A     43  28  55 NE6       30.02S
HETTINGER ARPT FLURRIES  33  31  92 N3        30.00R
$$

NDZ004>008-012>016-024-026-027-054-280600-
NORTHEAST NORTH DAKOTA

CITY           SKY/WX    TMP DP  RH WIND       PRES   REMARKS
GRAND FORKS    CLOUDY    46  26  45 NE14      30.03R
GRND FRKS AFB  CLOUDY    46  23  41 NE12      30.03S
DEVILS LAKE    MOCLDY    43  27  53 NE9       30.05R
$$

NDZ022-023-025-028>030-036>039-047>053-280600-
SOUTHEAST NORTH DAKOTA

CITY           SKY/WX    TMP DP  RH WIND       PRES   REMARKS
FARGO          CLOUDY    49  21  33 E7        29.99R
JAMESTOWN      CLOUDY    41  33  73 S10       29.99R
$$





USA.gov is the U.S. government's official web portal to all federal, state and local government web resources and services.